Погода в Новой Смаиле

Россия / Кировская область     56°24′10″N   50°39′44″E
темп.,
°C
ветер,
м/с
пор.,
м/с
влажн.,
%
обл.,
%
осадки,
мм/ч
давл.,
гПа
погр.,
м
10 мая, пн
пн1000:00+15юв496880 0.0 1015196
03:00+15ююв2270100 0.1 101630
06:00+16ююв3671100 0.0 1017185
09:00+17всв2269100 0.0 1019174
12:00+19вюв3459100 0.0 1020303
15:00+21св1154100 0.0 1021215
18:00+19св2265100 0.0 102127
21:00+16с41078100 0.0 1023239
11 мая, вт
вт1100:00+15ссв3682100 0.0 1024166
03:00+13св3386100 0.0 102541
06:00+14ссв3683100 0.0 1026217
09:00+20св3460100 0.0 1026550
12:00+23в224423 0.0 10271352
15:00+25сз123519 0.0 10262279
18:00+20с4759100 0.0 1027164
21:00+18св386920 0.0 1028202
12 мая, ср
ср1200:00+14св22813 0.0 102929
03:00+13всв22811 0.0 102912
06:00+16в23691 0.0 1029129
09:00+22в34445 0.0 1029756
12:00+25юв453721 0.0 10282398
15:00+25ююв453311 0.0 10282225
18:00+22ююз225092 0.0 102831
21:00+17вюв115325 0.0 102811
13 мая, чт
чт1300:00+16вюв116114 0.0 102811
03:00+14в226719 0.0 102910
06:00+17вюв236522 0.0 1029108
09:00+23вюв344987 0.0 1028724
12:00+25ююв5635100 0.0 10272288
15:00+24ю463963 0.0 10271325
18:00+22ююв22505 0.0 102629
21:00+17юв22565 0.0 102611
14 мая, пт
пт1400:00+16ююв2264100 0.0 102611
03:00+15ююв226655 0.0 102611
06:00+17ююв24605 0.0 1026136
09:00+23ю45455 0.0 1025663
12:00+25ююз453853 0.0 10241438
15:00+25ююз453999 0.0 10241282
18:00+22ю3456100 0.0 102282
21:00+18ю346267 0.0 102259